Back to catalog

COSMOS 1133

AliveNavigationLEO
NORAD 11541·PAYLOAD·🇷🇺 Russia

Launched Sep 25, 1979 from Plesetsk Cosmodrome

Loading…

Next Passes (next 24 hours)

TLE

FreshSource: Space-Track

Epoch: Sep 14, 2026, 04:37 UTC

1 11541U 79084D   26257.19297934  .00000007  00000-0  14993-3 0  9992
2 11541  74.0258 170.2608 0028547 235.4355 277.6814 12.50884915 78910

Track COSMOS 1133 in real time with AllMySat

Download on the App Store